Language: 


Des rapports , des résumés tant et plus, au choix de chacun....


Données statistiques de la station
Quotidien Rapport Février 23, 2017 Unités:  Métrique    Anglais   les deux
« Précédent Jour
Suivant Jour »
Quotidien Hebdomadaire Mensuel Annuel Actuel
  Haut: Bas: Moyen:
Température: 11.9 °C 7.2 °C 9.6 °C
Pt de rosée: 9.7 °C -0.4 °C 6 °C
Humidité: 96 % 54 % 80 %
Vitesse du vent: 78.5 km/h 0.0 km/h 33.1 km/h
Rafales: 95.1 km/h - -
Vent:- - WSW
Pression: 1007.0 hPa 994.1 hPa -
Précipitation: 1.8 mm    
Historical Graphs
 
 
Données statistiques pour Février 23, 2017
Heure Température Point de rosée Pression Vent Vitesse du vent Refales Humidité Pluie (taux horaire)
00:04 10.3 °C 9.7 °C 1007.0 hPa WSW 28.5 km/h 45.1 km/h 96 % 0.0 mm
00:09 10.3 °C 9.7 °C 1007.0 hPa West 28.5 km/h 43.6 km/h 96 % 0.0 mm
00:14 10.3 °C 9.7 °C 1007.0 hPa WSW 45.7 km/h 45.7 km/h 96 % 0.0 mm
00:19 10.3 °C 9.7 °C 1007.0 hPa WSW 37.8 km/h 45.7 km/h 96 % 0.0 mm
00:24 10.3 °C 9.7 °C 1007.0 hPa WSW 31.4 km/h 45.7 km/h 96 % 0.0 mm
00:29 10.3 °C 9.7 °C 1007.0 hPa West 31.4 km/h 45.7 km/h 96 % 0.3 mm
00:34 10.3 °C 9.7 °C 1007.0 hPa WNW 23.8 km/h 45.7 km/h 96 % 0.3 mm
00:39 10.3 °C 9.7 °C 1007.0 hPa West 36.7 km/h 48.9 km/h 96 % 0.3 mm
00:44 10.2 °C 9.6 °C 1007.0 hPa West 38.9 km/h 48.9 km/h 96 % 0.3 mm
00:49 10.2 °C 9.6 °C 1007.0 hPa WSW 22.7 km/h 42.2 km/h 96 % 0.3 mm
00:54 10.2 °C 9.6 °C 1007.0 hPa WSW 37.0 km/h 43.1 km/h 96 % 0.3 mm
00:59 10.2 °C 9.6 °C 1007.0 hPa WSW 23.3 km/h 43.6 km/h 96 % 0.3 mm
01:04 10.2 °C 9.6 °C 1007.0 hPa WSW 34.3 km/h 43.6 km/h 96 % 0.3 mm
01:09 10.1 °C 9.5 °C 1007.0 hPa WSW 32.8 km/h 39.6 km/h 96 % 0.3 mm
01:14 10.1 °C 9.5 °C 1007.0 hPa WSW 23.8 km/h 39.6 km/h 96 % 0.3 mm
01:19 10.1 °C 9.5 °C 1007.0 hPa West 28.5 km/h 42.5 km/h 96 % 0.3 mm
01:24 10.1 °C 9.5 °C 1006.0 hPa West 36.7 km/h 44.2 km/h 96 % 0.0 mm
01:29 10.1 °C 9.5 °C 1006.0 hPa WSW 29.9 km/h 44.2 km/h 96 % 0.0 mm
01:34 10.1 °C 9.5 °C 1006.0 hPa West 34.3 km/h 48.6 km/h 96 % 0.0 mm
01:39 10.1 °C 9.5 °C 1007.0 hPa WSW 38.5 km/h 48.6 km/h 96 % 0.0 mm
01:44 10.1 °C 9.5 °C 1007.0 hPa West 28.5 km/h 46.0 km/h 96 % 0.0 mm
01:49 10.1 °C 9.3 °C 1007.0 hPa WSW 36.7 km/h 46.0 km/h 95 % 0.0 mm
01:54 10.1 °C 9.3 °C 1007.0 hPa WSW 28.0 km/h 41.7 km/h 95 % 0.0 mm
01:59 10.1 °C 9.3 °C 1007.0 hPa WSW 36.4 km/h 44.2 km/h 95 % 0.0 mm
02:04 10.1 °C 9.3 °C 1007.0 hPa West 28.5 km/h 47.9 km/h 95 % 0.0 mm
02:09 10.1 °C 9.3 °C 1007.0 hPa WSW 24.8 km/h 47.9 km/h 95 % 0.0 mm
02:14 10.0 °C 9.1 °C 1007.0 hPa WSW 32.0 km/h 41.4 km/h 94 % 0.0 mm
02:19 10.0 °C 9.1 °C 1007.0 hPa WSW 23.8 km/h 38.5 km/h 94 % 0.0 mm
02:24 10.0 °C 9.1 °C 1006.0 hPa WSW 27.7 km/h 42.2 km/h 94 % 0.0 mm
02:29 10.0 °C 8.9 °C 1006.0 hPa WSW 36.0 km/h 42.5 km/h 93 % 0.0 mm
02:34 10.0 °C 8.9 °C 1006.0 hPa WSW 37.0 km/h 49.7 km/h 93 % 0.0 mm
02:37 10.0 °C 8.9 °C 1006.0 hPa WSW 30.6 km/h 49.7 km/h 93 % 0.0 mm
02:43 10.0 °C 8.9 °C 1006.0 hPa WSW 24.8 km/h 49.7 km/h 93 % 0.0 mm
02:47 9.9 °C 8.8 °C 1006.0 hPa WSW 37.5 km/h 38.9 km/h 93 % 0.0 mm
02:52 9.9 °C 9.0 °C 1006.0 hPa WSW 24.5 km/h 41.0 km/h 94 % 0.0 mm
02:57 9.9 °C 9.0 °C 1006.0 hPa WSW 35.2 km/h 41.0 km/h 94 % 0.0 mm
03:02 9.9 °C 9.0 °C 1006.0 hPa WSW 18.3 km/h 41.4 km/h 94 % 0.0 mm
03:08 9.9 °C 8.8 °C 1005.0 hPa WSW 37.0 km/h 40.4 km/h 93 % 0.0 mm
03:13 9.9 °C 8.8 °C 1005.0 hPa WSW 20.9 km/h 47.9 km/h 93 % 0.0 mm
03:18 9.9 °C 8.7 °C 1005.0 hPa WSW 27.4 km/h 47.9 km/h 92 % 0.0 mm
03:23 9.9 °C 8.7 °C 1003.9 hPa WSW 28.0 km/h 48.9 km/h 92 % 0.0 mm
03:28 9.9 °C 8.7 °C 1003.9 hPa WSW 20.1 km/h 48.9 km/h 92 % 0.0 mm
03:33 9.8 °C 8.7 °C 1003.9 hPa West 31.7 km/h 41.4 km/h 93 % 0.0 mm
03:38 9.8 °C 8.7 °C 1003.9 hPa WSW 30.9 km/h 38.5 km/h 93 % 0.0 mm
03:43 9.8 °C 8.7 °C 1003.9 hPa WSW 36.7 km/h 48.3 km/h 93 % 0.0 mm
03:48 9.8 °C 8.7 °C 1003.9 hPa West 23.8 km/h 48.3 km/h 93 % 0.0 mm
03:53 9.8 °C 8.7 °C 1005.0 hPa WSW 30.2 km/h 42.5 km/h 93 % 0.0 mm
03:58 9.8 °C 8.7 °C 1005.0 hPa WSW 23.3 km/h 38.5 km/h 93 % 0.0 mm
04:03 9.8 °C 8.9 °C 1005.0 hPa WSW 23.8 km/h 38.5 km/h 94 % 0.0 mm
04:08 9.8 °C 8.9 °C 1005.0 hPa WSW 37.8 km/h 40.7 km/h 94 % 0.0 mm
04:13 9.7 °C 8.8 °C 1005.0 hPa SW 36.7 km/h 40.7 km/h 94 % 0.0 mm
04:18 9.7 °C 8.8 °C 1005.0 hPa WSW 36.7 km/h 37.0 km/h 94 % 0.0 mm
04:23 9.7 °C 8.8 °C 1003.9 hPa West 23.0 km/h 36.7 km/h 94 % 0.0 mm
04:28 9.6 °C 8.8 °C 1003.9 hPa WSW 36.0 km/h 36.7 km/h 95 % 0.0 mm
04:33 9.6 °C 8.8 °C 1003.9 hPa WSW 24.8 km/h 40.4 km/h 95 % 0.0 mm
04:38 9.6 °C 8.8 °C 1003.9 hPa WSW 26.2 km/h 41.0 km/h 95 % 0.0 mm
04:43 9.6 °C 8.8 °C 1003.9 hPa West 28.5 km/h 44.2 km/h 95 % 0.0 mm
04:48 9.5 °C 8.7 °C 1003.9 hPa WSW 20.1 km/h 44.2 km/h 95 % 0.0 mm
04:53 9.5 °C 8.7 °C 1002.9 hPa WSW 20.1 km/h 41.0 km/h 95 % 0.0 mm
04:58 9.5 °C 8.7 °C 1002.9 hPa WSW 27.4 km/h 43.1 km/h 95 % 0.0 mm
05:03 9.5 °C 8.7 °C 1002.9 hPa SW 28.8 km/h 43.1 km/h 95 % 0.0 mm
05:08 9.5 °C 8.7 °C 1001.9 hPa WSW 31.7 km/h 41.7 km/h 95 % 0.0 mm
05:13 9.5 °C 8.7 °C 1001.9 hPa SW 28.0 km/h 38.1 km/h 95 % 0.0 mm
05:18 9.5 °C 8.7 °C 1001.9 hPa WSW 32.0 km/h 36.4 km/h 95 % 0.0 mm
05:23 9.5 °C 8.7 °C 1002.9 hPa WSW 33.5 km/h 36.4 km/h 95 % 0.0 mm
05:28 9.5 °C 8.7 °C 1002.9 hPa WSW 34.6 km/h 34.6 km/h 95 % 0.0 mm
05:33 9.5 °C 8.7 °C 1002.9 hPa WSW 37.8 km/h 37.8 km/h 95 % 0.0 mm
05:38 9.5 °C 8.7 °C 1002.9 hPa WSW 39.6 km/h 39.6 km/h 95 % 0.0 mm
05:43 9.5 °C 8.7 °C 1002.9 hPa WSW 24.5 km/h 39.6 km/h 95 % 0.0 mm
05:48 9.5 °C 8.7 °C 1002.9 hPa SW 20.1 km/h 37.8 km/h 95 % 0.0 mm
05:53 9.5 °C 8.7 °C 1002.9 hPa West 21.2 km/h 34.3 km/h 95 % 0.0 mm
05:58 9.5 °C 8.7 °C 1002.9 hPa SW 17.7 km/h 34.3 km/h 95 % 0.0 mm
06:03 9.4 °C 8.7 °C 1002.9 hPa SW 17.7 km/h 28.5 km/h 95 % 0.0 mm
06:08 9.4 °C 8.8 °C 1001.9 hPa SW 16.9 km/h 33.8 km/h 96 % 0.0 mm
06:13 9.4 °C 8.8 °C 1001.9 hPa WSW 31.4 km/h 33.8 km/h 96 % 0.0 mm
06:18 9.4 °C 8.8 °C 1001.9 hPa WSW 17.2 km/h 34.3 km/h 96 % 0.0 mm
06:23 9.4 °C 8.8 °C 1001.9 hPa SW 16.3 km/h 34.3 km/h 96 % 0.0 mm
06:28 9.3 °C 8.7 °C 1001.9 hPa SSW 23.8 km/h 32.0 km/h 96 % 0.0 mm
06:33 9.3 °C 8.7 °C 1001.9 hPa WSW 19.5 km/h 32.0 km/h 96 % 0.0 mm
06:38 9.3 °C 8.7 °C 1000.9 hPa SSW 20.1 km/h 31.4 km/h 96 % 0.0 mm
06:43 9.2 °C 8.6 °C 1000.9 hPa SW 23.8 km/h 31.4 km/h 96 % 0.0 mm
06:48 9.2 °C 8.6 °C 1000.9 hPa SW 17.2 km/h 28.5 km/h 96 % 0.0 mm
06:53 9.2 °C 8.6 °C 1000.9 hPa SW 23.8 km/h 30.9 km/h 96 % 0.0 mm
06:58 9.2 °C 8.6 °C 1000.9 hPa SW 23.8 km/h 30.9 km/h 96 % 0.0 mm
07:03 9.2 °C 8.6 °C 1000.9 hPa SSW 17.2 km/h 34.3 km/h 96 % 0.0 mm
07:08 9.1 °C 8.5 °C 1000.9 hPa SW 27.7 km/h 34.3 km/h 96 % 0.0 mm
07:13 9.1 °C 8.5 °C 1000.9 hPa SW 15.8 km/h 30.9 km/h 96 % 0.0 mm
07:18 9.1 °C 8.5 °C 1000.9 hPa WSW 23.0 km/h 30.9 km/h 96 % 0.0 mm
07:23 9.0 °C 8.4 °C 1000.9 hPa SW 20.9 km/h 30.2 km/h 96 % 0.0 mm
07:28 9.0 °C 8.4 °C 1000.9 hPa SW 20.9 km/h 30.2 km/h 96 % 0.0 mm
07:33 9.0 °C 8.4 °C 1000.9 hPa SW 17.2 km/h 26.2 km/h 96 % 0.0 mm
07:38 9.0 °C 8.4 °C 1000.9 hPa SW 19.1 km/h 24.8 km/h 96 % 0.0 mm
07:43 9.0 °C 8.4 °C 1000.9 hPa SSW 21.6 km/h 28.0 km/h 96 % 0.0 mm
07:48 9.0 °C 8.4 °C 1000.9 hPa SW 20.1 km/h 28.0 km/h 96 % 0.0 mm
07:53 9.0 °C 8.4 °C 1000.9 hPa WSW 28.5 km/h 35.2 km/h 96 % 0.0 mm
07:58 9.1 °C 8.5 °C 1000.9 hPa WSW 20.1 km/h 35.2 km/h 96 % 0.0 mm
08:03 9.1 °C 8.5 °C 1000.9 hPa WSW 16.3 km/h 28.5 km/h 96 % 0.0 mm
08:08 9.1 °C 8.5 °C 999.9 hPa SSW 23.0 km/h 33.1 km/h 96 % 0.0 mm
08:13 9.1 °C 8.5 °C 999.9 hPa SW 17.2 km/h 33.1 km/h 96 % 0.0 mm
08:18 9.1 °C 8.5 °C 999.9 hPa WSW 16.6 km/h 28.5 km/h 96 % 0.0 mm
08:23 9.1 °C 8.5 °C 998.9 hPa WSW 16.9 km/h 28.5 km/h 96 % 0.0 mm
08:28 9.1 °C 8.5 °C 998.9 hPa SSW 19.5 km/h 24.5 km/h 96 % 0.0 mm
08:33 9.1 °C 8.5 °C 998.9 hPa SW 17.7 km/h 27.4 km/h 96 % 0.0 mm
08:38 9.1 °C 8.5 °C 998.9 hPa SW 25.6 km/h 27.7 km/h 96 % 0.0 mm
08:43 9.1 °C 8.5 °C 998.9 hPa WSW 30.2 km/h 30.2 km/h 96 % 0.0 mm
08:48 9.1 °C 8.5 °C 998.9 hPa SW 20.9 km/h 34.6 km/h 96 % 0.0 mm
08:53 9.1 °C 8.5 °C 998.9 hPa SW 24.5 km/h 35.6 km/h 96 % 0.0 mm
08:58 9.1 °C 8.5 °C 998.9 hPa SW 29.9 km/h 36.4 km/h 96 % 0.0 mm
09:03 9.1 °C 8.5 °C 998.9 hPa SW 21.9 km/h 36.4 km/h 96 % 0.0 mm
09:08 9.2 °C 8.6 °C 998.9 hPa SW 19.8 km/h 36.0 km/h 96 % 0.0 mm
09:13 9.2 °C 8.6 °C 998.9 hPa SW 20.1 km/h 35.6 km/h 96 % 0.0 mm
09:18 9.2 °C 8.6 °C 998.9 hPa SSW 35.6 km/h 36.0 km/h 96 % 0.0 mm
09:23 9.2 °C 8.6 °C 998.9 hPa SSW 35.2 km/h 36.0 km/h 96 % 0.0 mm
09:28 9.2 °C 8.6 °C 998.9 hPa SSW 27.4 km/h 35.6 km/h 96 % 0.0 mm
09:33 9.2 °C 8.6 °C 998.9 hPa SW 17.7 km/h 35.2 km/h 96 % 0.0 mm
09:38 9.2 °C 8.6 °C 998.9 hPa SSW 26.2 km/h 28.0 km/h 96 % 0.0 mm
09:43 9.3 °C 8.7 °C 998.9 hPa WSW 23.8 km/h 36.0 km/h 96 % 0.0 mm
09:48 9.2 °C 8.6 °C 998.9 hPa SW 32.0 km/h 36.0 km/h 96 % 0.0 mm
09:53 9.2 °C 8.6 °C 997.9 hPa SW 19.8 km/h 37.0 km/h 96 % 0.0 mm
09:58 9.2 °C 8.6 °C 997.9 hPa SSW 14.3 km/h 37.0 km/h 96 % 0.0 mm
10:03 9.3 °C 8.7 °C 997.9 hPa WSW 23.8 km/h 30.6 km/h 96 % 0.0 mm
10:08 9.3 °C 8.7 °C 997.9 hPa SSW 16.9 km/h 30.6 km/h 96 % 0.0 mm
10:13 9.3 °C 8.7 °C 997.9 hPa SW 20.1 km/h 30.9 km/h 96 % 0.0 mm
10:18 9.4 °C 8.8 °C 997.9 hPa WSW 19.8 km/h 37.5 km/h 96 % 0.0 mm
10:23 9.4 °C 8.8 °C 996.8 hPa South 16.6 km/h 37.5 km/h 96 % 0.0 mm
10:28 9.5 °C 8.9 °C 996.8 hPa WSW 20.1 km/h 28.5 km/h 96 % 0.0 mm
10:33 9.5 °C 8.9 °C 996.8 hPa SSW 20.6 km/h 42.8 km/h 96 % 0.3 mm
10:38 9.6 °C 9.0 °C 996.8 hPa SSW 20.6 km/h 42.8 km/h 96 % 0.3 mm
10:43 9.6 °C 9.0 °C 996.8 hPa SSW 35.6 km/h 35.6 km/h 96 % 0.3 mm
10:48 9.7 °C 9.1 °C 996.8 hPa WSW 24.8 km/h 38.9 km/h 96 % 0.3 mm
10:53 9.8 °C 9.1 °C 996.8 hPa WSW 17.2 km/h 38.9 km/h 95 % 0.3 mm
10:58 9.9 °C 9.1 °C 996.8 hPa SSW 26.2 km/h 38.1 km/h 95 % 0.3 mm
11:03 9.9 °C 9.1 °C 996.8 hPa WSW 20.6 km/h 38.1 km/h 95 % 0.3 mm
11:08 10.0 °C 9.1 °C 996.2 hPa SW 21.2 km/h 38.5 km/h 94 % 0.3 mm
11:13 10.0 °C 8.9 °C 996.2 hPa SW 28.5 km/h 39.6 km/h 93 % 0.3 mm
11:18 10.1 °C 9.0 °C 996.2 hPa WSW 30.9 km/h 39.6 km/h 93 % 0.3 mm
11:23 10.1 °C 8.8 °C 995.1 hPa SW 31.4 km/h 47.5 km/h 92 % 0.3 mm
11:28 10.0 °C 8.9 °C 995.1 hPa WSW 30.9 km/h 47.5 km/h 93 % 0.3 mm
11:33 10.0 °C 8.9 °C 995.1 hPa SW 20.1 km/h 45.7 km/h 93 % 0.0 mm
11:38 9.9 °C 9.0 °C 995.1 hPa SW 27.0 km/h 45.7 km/h 94 % 0.0 mm
11:43 9.9 °C 9.0 °C 995.1 hPa WSW 16.6 km/h 39.6 km/h 94 % 0.0 mm
11:48 9.9 °C 9.1 °C 995.1 hPa WSW 37.0 km/h 42.5 km/h 95 % 0.0 mm
11:53 9.9 °C 9.1 °C 994.1 hPa WSW 37.8 km/h 44.6 km/h 95 % 0.0 mm
11:58 9.9 °C 9.1 °C 994.1 hPa WSW 19.8 km/h 44.6 km/h 95 % 0.0 mm
12:03 9.9 °C 9.3 °C 994.1 hPa WSW 36.0 km/h 43.1 km/h 96 % 0.0 mm
12:08 9.9 °C 9.3 °C 995.1 hPa WSW 38.1 km/h 41.0 km/h 96 % 0.0 mm
12:13 10.0 °C 9.4 °C 995.1 hPa WSW 64.4 km/h 71.0 km/h 96 % 0.3 mm
12:18 9.9 °C 9.1 °C 995.1 hPa West 39.3 km/h 71.0 km/h 95 % 0.5 mm
12:23 10.0 °C 9.4 °C 995.1 hPa WSW 40.4 km/h 65.8 km/h 96 % 0.8 mm
12:28 10.2 °C 9.6 °C 995.1 hPa WSW 41.7 km/h 48.6 km/h 96 % 0.8 mm
12:33 10.3 °C 9.5 °C 995.1 hPa SW 46.5 km/h 59.7 km/h 95 % 0.8 mm
12:38 10.6 °C 9.2 °C 994.1 hPa West 50.0 km/h 63.7 km/h 91 % 0.8 mm
12:43 11.1 °C 9.0 °C 994.1 hPa WSW 55.3 km/h 67.7 km/h 87 % 0.8 mm
12:48 11.1 °C 8.7 °C 994.1 hPa WSW 41.4 km/h 67.7 km/h 85 % 0.8 mm
12:53 10.9 °C 7.6 °C 995.1 hPa WSW 59.1 km/h 63.4 km/h 80 % 1.3 mm
12:58 10.8 °C 7.3 °C 995.1 hPa WSW 44.6 km/h 69.8 km/h 79 % 1.3 mm
13:03 10.8 °C 7.3 °C 995.1 hPa WSW 37.5 km/h 69.8 km/h 79 % 1.3 mm
13:08 10.8 °C 6.5 °C 995.1 hPa WSW 37.8 km/h 59.4 km/h 75 % 1.3 mm
13:13 11.4 °C 7.8 °C 995.1 hPa WSW 50.0 km/h 59.4 km/h 79 % 1.0 mm
13:18 11.7 °C 7.8 °C 995.1 hPa West 41.0 km/h 65.5 km/h 77 % 0.8 mm
13:23 11.4 °C 7.4 °C 994.1 hPa West 53.6 km/h 67.3 km/h 76 % 0.3 mm
13:28 11.8 °C 7.4 °C 994.1 hPa West 68.7 km/h 71.3 km/h 75 % 0.3 mm
13:33 11.9 °C 6.4 °C 994.1 hPa WSW 51.8 km/h 80.9 km/h 69 % 0.3 mm
13:38 11.8 °C 5.4 °C 994.1 hPa WSW 78.5 km/h 80.9 km/h 65 % 0.3 mm
13:43 11.7 °C 5.3 °C 994.1 hPa West 54.7 km/h 78.5 km/h 65 % 0.3 mm
13:48 11.7 °C 5.1 °C 994.1 hPa WSW 59.7 km/h 70.5 km/h 64 % 0.3 mm
13:53 11.7 °C 5.5 °C 994.1 hPa West 63.7 km/h 75.6 km/h 66 % 0.0 mm
13:58 11.4 °C 4.7 °C 994.1 hPa West 67.3 km/h 75.6 km/h 63 % 0.0 mm
14:03 11.4 °C 4.8 °C 994.1 hPa WSW 52.6 km/h 73.9 km/h 64 % 0.0 mm
14:08 11.4 °C 4.3 °C 994.1 hPa West 64.4 km/h 95.1 km/h 62 % 0.0 mm
14:13 11.2 °C 4.4 °C 994.1 hPa West 62.3 km/h 95.1 km/h 63 % 0.0 mm
14:18 11.0 °C 4.4 °C 994.1 hPa West 70.5 km/h 83.5 km/h 64 % 0.0 mm
14:23 10.9 °C 4.6 °C 994.1 hPa West 75.6 km/h 83.5 km/h 65 % 0.0 mm
14:28 10.9 °C 4.1 °C 994.1 hPa West 53.3 km/h 76.6 km/h 63 % 0.0 mm
14:33 10.8 °C 4.2 °C 994.1 hPa WSW 56.8 km/h 76.6 km/h 64 % 0.0 mm
14:38 10.7 °C 3.9 °C 994.1 hPa WSW 69.8 km/h 79.5 km/h 63 % 0.0 mm
14:43 10.7 °C 4.2 °C 994.1 hPa West 39.3 km/h 79.5 km/h 64 % 0.0 mm
14:48 10.7 °C 4.4 °C 994.1 hPa WSW 60.8 km/h 71.0 km/h 65 % 0.0 mm
14:53 10.7 °C 4.8 °C 994.1 hPa West 48.3 km/h 71.0 km/h 67 % 0.0 mm
14:58 10.8 °C 4.9 °C 994.1 hPa West 53.3 km/h 70.5 km/h 67 % 0.0 mm
15:03 10.9 °C 4.8 °C 994.1 hPa SW 60.5 km/h 65.8 km/h 66 % 0.0 mm
15:08 10.8 °C 4.4 °C 994.1 hPa WSW 62.6 km/h 75.3 km/h 65 % 0.0 mm
15:13 10.8 °C 4.0 °C 994.1 hPa WSW 63.4 km/h 76.6 km/h 63 % 0.0 mm
15:18 11.0 °C 4.2 °C 994.1 hPa West 42.8 km/h 76.6 km/h 63 % 0.0 mm
15:23 10.9 °C 3.9 °C 994.1 hPa WSW 71.6 km/h 85.3 km/h 62 % 0.0 mm
15:28 11.1 °C 4.3 °C 994.1 hPa West 62.9 km/h 85.3 km/h 63 % 0.0 mm
15:33 11.0 °C 3.9 °C 994.1 hPa West 60.5 km/h 74.5 km/h 62 % 0.0 mm
15:38 11.0 °C 3.5 °C 994.1 hPa West 58.7 km/h 74.5 km/h 60 % 0.0 mm
15:43 11.2 °C 4.4 °C 994.1 hPa West 56.8 km/h 74.2 km/h 63 % 0.0 mm
15:48 10.8 °C 3.1 °C 994.1 hPa West 60.2 km/h 74.8 km/h 59 % 0.0 mm
15:53 10.7 °C 3.7 °C 994.1 hPa West 38.5 km/h 74.8 km/h 62 % 0.0 mm
15:58 10.8 °C 3.1 °C 994.1 hPa West 47.5 km/h 76.6 km/h 59 % 0.0 mm
16:03 10.9 °C 3.4 °C 994.1 hPa West 67.7 km/h 76.6 km/h 60 % 0.0 mm
16:04 10.9 °C 3.4 °C 994.1 hPa WSW 53.3 km/h 76.6 km/h 60 % 0.0 mm
16:09 10.8 °C 3.1 °C 994.1 hPa WSW 51.5 km/h 76.6 km/h 59 % 0.0 mm
16:10 10.8 °C 3.1 °C 994.1 hPa WNW 68.1 km/h 76.6 km/h 59 % 0.0 mm
16:15 10.6 °C 3.1 °C 994.1 hPa WNW 60.2 km/h 79.5 km/h 60 % 0.0 mm
16:20 10.6 °C 2.9 °C 994.1 hPa West 53.3 km/h 83.2 km/h 59 % 0.0 mm
16:25 10.5 °C 2.8 °C 994.1 hPa WSW 71.3 km/h 83.2 km/h 59 % 0.0 mm
16:30 10.4 °C 3.2 °C 994.1 hPa West 54.1 km/h 75.9 km/h 61 % 0.0 mm
16:35 10.4 °C 2.7 °C 994.1 hPa West 64.8 km/h 82.1 km/h 59 % 0.0 mm
16:40 10.5 °C 2.8 °C 995.1 hPa West 41.4 km/h 82.1 km/h 59 % 0.0 mm
16:45 10.5 °C 2.8 °C 995.1 hPa West 48.6 km/h 71.3 km/h 59 % 0.0 mm
16:50 10.4 °C 2.7 °C 995.1 hPa West 52.1 km/h 71.0 km/h 59 % 0.0 mm
16:55 10.3 °C 3.1 °C 995.1 hPa West 38.9 km/h 71.0 km/h 61 % 0.0 mm
17:00 10.1 °C 2.7 °C 995.1 hPa WSW 49.7 km/h 67.7 km/h 60 % 0.0 mm
17:05 10.1 °C 3.1 °C 995.1 hPa West 40.7 km/h 64.0 km/h 62 % 0.0 mm
17:10 10.0 °C 2.6 °C 995.1 hPa West 52.9 km/h 75.9 km/h 60 % 0.0 mm
17:15 10.0 °C 2.6 °C 995.1 hPa West 52.9 km/h 75.9 km/h 60 % 0.0 mm
17:20 9.9 °C 2.7 °C 995.1 hPa West 52.1 km/h 60.8 km/h 61 % 0.0 mm
17:25 9.8 °C 2.4 °C 994.1 hPa West 42.8 km/h 69.8 km/h 60 % 0.0 mm
17:30 9.7 °C 2.8 °C 994.1 hPa WSW 39.6 km/h 69.8 km/h 62 % 0.0 mm
17:35 9.6 °C 2.7 °C 994.1 hPa West 46.5 km/h 63.4 km/h 62 % 0.0 mm
17:40 9.5 °C 2.6 °C 995.1 hPa WSW 44.6 km/h 63.4 km/h 62 % 0.0 mm
17:45 9.4 °C 2.5 °C 995.1 hPa West 52.6 km/h 59.7 km/h 62 % 0.0 mm
17:50 9.3 °C 2.6 °C 995.1 hPa West 41.7 km/h 59.7 km/h 63 % 0.0 mm
17:55 9.1 °C 2.7 °C 995.1 hPa West 53.3 km/h 60.8 km/h 64 % 0.0 mm
18:00 9.1 °C 2.7 °C 995.1 hPa SSW 48.3 km/h 68.1 km/h 64 % 0.0 mm
18:05 9.1 °C 2.7 °C 995.1 hPa West 48.9 km/h 68.1 km/h 64 % 0.0 mm
18:10 9.0 °C 2.8 °C 996.2 hPa WNW 42.5 km/h 58.7 km/h 65 % 0.0 mm
18:15 8.9 °C 2.7 °C 996.2 hPa West 54.7 km/h 54.7 km/h 65 % 0.0 mm
18:20 8.9 °C 2.7 °C 996.2 hPa WSW 44.2 km/h 55.8 km/h 65 % 0.0 mm
18:25 8.8 °C 2.8 °C 996.2 hPa WSW 47.9 km/h 57.3 km/h 66 % 0.0 mm
18:30 8.7 °C 2.7 °C 996.2 hPa West 48.9 km/h 57.3 km/h 66 % 0.0 mm
18:35 8.7 °C 2.7 °C 996.2 hPa WSW 41.0 km/h 53.6 km/h 66 % 0.0 mm
18:40 8.6 °C 2.6 °C 996.8 hPa WSW 29.9 km/h 53.6 km/h 66 % 0.0 mm
18:45 8.6 °C 2.6 °C 996.8 hPa West 46.0 km/h 48.3 km/h 66 % 0.0 mm
18:50 8.6 °C 2.8 °C 996.8 hPa West 47.9 km/h 56.8 km/h 67 % 0.0 mm
18:55 8.6 °C 2.8 °C 996.8 hPa West 41.7 km/h 56.8 km/h 67 % 0.0 mm
19:00 8.6 °C 2.6 °C 996.8 hPa WSW 44.2 km/h 55.8 km/h 66 % 0.0 mm
19:05 8.6 °C 2.4 °C 996.8 hPa West 46.8 km/h 55.8 km/h 65 % 0.0 mm
19:10 8.6 °C 2.2 °C 996.2 hPa West 43.6 km/h 56.8 km/h 64 % 0.0 mm
19:15 8.6 °C 2.2 °C 996.2 hPa West 28.8 km/h 60.5 km/h 64 % 0.0 mm
19:20 8.6 °C 2.2 °C 996.2 hPa West 38.9 km/h 60.5 km/h 64 % 0.0 mm
19:25 8.6 °C 2.2 °C 996.2 hPa West 27.7 km/h 55.3 km/h 64 % 0.0 mm
19:30 8.5 °C 1.9 °C 996.2 hPa West 27.7 km/h 50.0 km/h 63 % 0.0 mm
19:35 8.5 °C 2.1 °C 996.2 hPa West 42.8 km/h 50.0 km/h 64 % 0.0 mm
19:40 8.5 °C 2.1 °C 996.8 hPa WSW 27.0 km/h 52.9 km/h 64 % 0.0 mm
19:45 8.5 °C 2.3 °C 996.8 hPa West 36.7 km/h 52.9 km/h 65 % 0.0 mm
19:50 8.6 °C 2.2 °C 996.8 hPa WSW 24.5 km/h 54.7 km/h 64 % 0.0 mm
19:55 8.5 °C 2.3 °C 997.9 hPa West 41.0 km/h 54.7 km/h 65 % 0.0 mm
20:00 8.5 °C 2.6 °C 997.9 hPa West 38.1 km/h 53.3 km/h 66 % 0.0 mm
20:05 8.5 °C 2.6 °C 997.9 hPa West 32.0 km/h 53.3 km/h 66 % 0.0 mm
20:10 8.5 °C 2.6 °C 997.9 hPa West 37.5 km/h 59.4 km/h 66 % 0.0 mm
20:15 8.5 °C 2.6 °C 997.9 hPa NW 35.6 km/h 59.4 km/h 66 % 0.0 mm
20:20 8.4 °C 2.7 °C 997.9 hPa West 20.9 km/h 53.3 km/h 67 % 0.0 mm
20:25 8.3 °C 2.6 °C 998.9 hPa WSW 22.4 km/h 40.4 km/h 67 % 0.0 mm
20:30 8.3 °C 2.6 °C 998.9 hPa West 36.0 km/h 36.7 km/h 67 % 0.0 mm
20:35 8.3 °C 2.6 °C 998.9 hPa West 30.2 km/h 41.7 km/h 67 % 0.0 mm
20:40 8.3 °C 2.6 °C 998.9 hPa WNW 21.2 km/h 42.2 km/h 67 % 0.0 mm
20:45 8.5 °C 2.3 °C 998.9 hPa West 20.6 km/h 42.2 km/h 65 % 0.0 mm
20:50 8.5 °C 2.3 °C 998.9 hPa West 40.7 km/h 40.7 km/h 65 % 0.0 mm
20:55 8.5 °C 2.1 °C 997.9 hPa NW 27.7 km/h 40.7 km/h 64 % 0.0 mm
21:00 8.6 °C 1.7 °C 997.9 hPa WSW 27.0 km/h 42.2 km/h 62 % 0.0 mm
21:05 8.6 °C 1.5 °C 997.9 hPa NW 27.0 km/h 45.1 km/h 61 % 0.0 mm
21:10 8.6 °C 1.3 °C 999.9 hPa NNW 18.0 km/h 45.1 km/h 60 % 0.0 mm
21:15 8.5 °C 1.2 °C 999.9 hPa West 17.2 km/h 31.7 km/h 60 % 0.0 mm
21:20 8.6 °C 1.1 °C 999.9 hPa West 12.2 km/h 28.0 km/h 59 % 0.0 mm
21:25 8.6 °C 0.8 °C 1000.9 hPa West 25.3 km/h 36.4 km/h 58 % 0.0 mm
21:30 8.6 °C 0.6 °C 1000.9 hPa WNW 19.8 km/h 37.8 km/h 57 % 0.0 mm
21:35 8.5 °C 0.2 °C 1000.9 hPa WNW 18.3 km/h 38.1 km/h 56 % 0.0 mm
21:40 8.5 °C 0.2 °C 1000.9 hPa WNW 23.0 km/h 38.1 km/h 56 % 0.0 mm
21:45 8.5 °C 0.5 °C 1000.9 hPa WNW 14.0 km/h 36.7 km/h 57 % 0.0 mm
21:50 8.4 °C 0.4 °C 1000.9 hPa NW 22.4 km/h 30.2 km/h 57 % 0.0 mm
21:55 8.3 °C 0.1 °C 1000.9 hPa WNW 31.7 km/h 31.7 km/h 56 % 0.0 mm
22:00 8.3 °C 0.1 °C 1000.9 hPa WSW 10.1 km/h 32.8 km/h 56 % 0.0 mm
22:05 8.3 °C -0.2 °C 1000.9 hPa West 8.7 km/h 35.6 km/h 55 % 0.0 mm
22:10 8.3 °C -0.4 °C 1000.9 hPa West 13.0 km/h 39.3 km/h 54 % 0.0 mm
22:15 8.3 °C -0.2 °C 1000.9 hPa North 9.3 km/h 39.3 km/h 55 % 0.0 mm
22:20 8.2 °C -0.1 °C 1000.9 hPa South 14.0 km/h 27.7 km/h 56 % 0.0 mm
22:25 8.2 °C -0.1 °C 1001.9 hPa North 10.1 km/h 35.6 km/h 56 % 0.0 mm
22:30 8.1 °C 0.1 °C 1001.9 hPa WNW 19.1 km/h 35.6 km/h 57 % 0.0 mm
22:35 8.1 °C 0.3 °C 1001.9 hPa West 31.4 km/h 31.4 km/h 58 % 0.0 mm
22:40 8.1 °C 0.0 °C 1002.9 hPa NNW 14.0 km/h 40.4 km/h 57 % 0.0 mm
22:45 8.1 °C 0.3 °C 1002.9 hPa NNW 15.1 km/h 40.4 km/h 58 % 0.0 mm
22:50 7.9 °C 0.4 °C 1002.9 hPa WNW 23.0 km/h 26.2 km/h 59 % 0.0 mm
22:55 7.9 °C 0.7 °C 1002.9 hPa WNW 23.3 km/h 26.2 km/h 60 % 0.0 mm
23:00 7.8 °C 0.8 °C 1002.9 hPa West 15.8 km/h 23.3 km/h 61 % 0.0 mm
23:05 7.8 °C 0.8 °C 1002.9 hPa West 16.3 km/h 23.8 km/h 61 % 0.0 mm
23:10 7.8 °C 1.0 °C 1002.9 hPa WNW 9.3 km/h 23.8 km/h 62 % 0.0 mm
23:11 7.8 °C 1.0 °C 1002.9 hPa NNE 10.8 km/h 19.5 km/h 62 % 0.0 mm
23:16 7.7 °C 1.1 °C 1002.9 hPa West 6.1 km/h 19.1 km/h 63 % 0.0 mm
23:21 7.7 °C 1.3 °C 1002.9 hPa WNW 16.9 km/h 17.7 km/h 64 % 0.0 mm
23:26 7.7 °C 1.3 °C 1002.9 hPa West 20.9 km/h 23.3 km/h 64 % 0.0 mm
23:31 7.7 °C 1.5 °C 1002.9 hPa Calm   27.4 km/h 65 % 0.0 mm
23:36 7.7 °C 1.5 °C 1002.9 hPa East 6.9 km/h 27.4 km/h 65 % 0.0 mm
23:41 7.6 °C 1.6 °C 1003.9 hPa West 6.1 km/h 23.8 km/h 66 % 0.0 mm
23:46 7.4 °C 1.7 °C 1003.9 hPa NW 10.1 km/h 24.8 km/h 67 % 0.0 mm
23:51 7.3 °C 1.7 °C 1003.9 hPa NW 5.5 km/h 24.8 km/h 68 % 0.0 mm
23:53 7.3 °C 1.7 °C 1003.9 hPa West 4.0 km/h 24.8 km/h 68 % 0.0 mm
23:58 7.2 °C 1.8 °C 1003.9 hPa NW 4.7 km/h 15.1 km/h 69 % 0.0 mm
Le Gheer Warneton
Courtoisie de Weather Underground - 2.25 mb

Mise a jour : 16-12-17 12:09:11
Généré par Cumulus 1.9.4 (1099)